Location: Unspecified
(0.0000°N, 0.0000°E)
Time: 12:57:48
(UTC+02:00)

Ariane H10+ - Visible Passes

Search period start: 19 April 2015 00:00
Search period end: 29 April 2015 00:00
Orbit: 293 x 31726 km, 6.8° (Epoch: 18 April)

Date Brightness Start Highest point End Pass type
(mag) Time Alt. Az. Time Alt. Az. Time Alt. Az.
20 Apr 7.5 03:03:36 10° W 11:21:52 73° N 11:29:50 10° E visible
20 Apr 6.8 21:05:28 10° WSW 21:15:00 71° S 05:34:18 10° E visible
22 Apr 8.6 01:07:02 10° W 09:24:27 77° N 09:42:21 10° E visible
22 Apr 5.3 19:18:37 10° WSW 19:23:17 58° S 20:00:36 10° E visible
23 Apr 5.5 06:37:08 11° W 13:35:34 77° N 13:38:42 10° E visible
23 Apr 8.4 23:15:54 10° W 23:46:38 83° S 07:52:36 10° E visible
24 Apr 3.9 17:31:29 10° WSW 17:33:49 40° S 17:40:30 10° ESE visible
25 Apr 7.1 03:31:03 10° W 11:44:58 74° N 11:51:17 10° E visible
25 Apr 7.2 21:26:47 10° WSW 21:38:51 75° S 05:58:30 10° E visible
27 Apr 8.2 01:29:26 10° W 09:49:01 76° N 10:02:47 10° E visible
27 Apr 5.8 19:38:22 10° WSW 19:44:07 62° S 03:53:24 10° E visible
28 Apr 5.1 13:45:44 10° W 13:55:17 89° N 13:57:53 10° E visible
